| time (UTC) | temp C | wind direction | speed KPH | gust KPH | rain 1hr cm | rain 24hr cm | rain mn cm | humidity % | barometer mb |
| 20260503175420 | 14 | 220 | 8.0 | 16.1 | 0.00 | 0.00 | 0.00 | 75 | 1012.8 |
| 20260503174914 | 14 | 243 | 8.0 | 16.1 | 0.00 | 0.00 | 0.00 | 75 | 1012.8 |
| 20260503174408 | 15 | 270 | 8.0 | 14.5 | 0.00 | 0.00 | 0.00 | 75 | 1012.9 |
| 20260503174148 | 15 | 242 | 6.4 | 14.5 | 0.00 | 0.00 | 0.00 | 76 | 1012.9 |
| 20260503173356 | 15 | 251 | 8.0 | 22.5 | 0.00 | 0.00 | 0.00 | 77 | 1012.8 |
| 20260503172850 | 14 | 202 | 8.0 | 22.5 | 0.00 | 0.00 | 0.00 | 77 | 1012.8 |
| 20260503172343 | 14 | 209 | 9.7 | 17.7 | 0.00 | 0.00 | 0.00 | 77 | 1012.7 |
| 20260503171838 | 14 | 218 | 9.7 | 20.9 | 0.00 | 0.00 | 0.00 | 77 | 1012.7 |
| 20260503171332 | 14 | 253 | 8.0 | 20.9 | 0.00 | 0.00 | 0.00 | 79 | 1012.7 |
| 20260503171111 | 13 | 260 | 8.0 | 16.1 | 0.00 | 0.00 | 0.00 | 80 | 1012.6 |
| 20260503170320 | 13 | 235 | 8.0 | 17.7 | 0.00 | 0.00 | 0.00 | 81 | 1012.6 |
| 20260503150740 | 13 | 179 | 3.2 | 9.7 | 0.00 | 0.00 | 0.00 | 79 | 1012.3 |
| 20260503150235 | 13 | 191 | 1.6 | 6.4 | 0.00 | 0.00 | 0.00 | 79 | 1012.3 |
| 20260503140228 | 12 | 214 | 3.2 | 6.4 | 0.00 | 0.00 | 0.00 | 82 | 1011.5 |
| 20260503131210 | 12 | 247 | 1.6 | 8.0 | 0.00 | 0.00 | 0.00 | 83 | 1010.9 |
| 20260503130704 | 12 | 248 | 3.2 | 8.0 | 0.00 | 0.00 | 0.00 | 82 | 1010.8 |
| 20260503130159 | 12 | 246 | 3.2 | 8.0 | 0.00 | 0.00 | 0.00 | 82 | 1010.9 |
| 20260503110440 | 12 | 245 | 4.8 | 11.3 | 0.00 | 0.00 | 0.00 | 81 | 1011.0 |
| 20260503081255 | 12 | 239 | 1.6 | 6.4 | 0.00 | 0.00 | 0.00 | 81 | 1011.5 |
| 20260503080749 | 12 | 239 | 3.2 | 8.0 | 0.00 | 0.00 | 0.00 | 81 | 1011.5 |
| 20260503080530 | 12 | 241 | 4.8 | 8.0 | 0.00 | 0.00 | 0.00 | 81 | 1011.5 |
| 20260503072744 | 12 | 249 | 4.8 | 14.5 | 0.00 | 0.00 | 0.00 | 81 | 1011.6 |
| 20260503072244 | 12 | 212 | 6.4 | 14.5 | 0.00 | 0.00 | 0.00 | 81 | 1011.6 |
| 20260503072031 | 12 | 245 | 4.8 | 12.9 | 0.00 | 0.00 | 0.00 | 81 | 1011.6 |
| 20260503071533 | 12 | 236 | 3.2 | 11.3 | 0.00 | 0.00 | 0.00 | 81 | 1011.6 |
| 20260503070746 | 12 | 237 | 3.2 | 8.0 | 0.00 | 0.00 | 0.00 | 81 | 1011.6 |
| 20260503070246 | 12 | 238 | 4.8 | 12.9 | 0.00 | 0.00 | 0.00 | 81 | 1011.5 |
| 20260503054654 | 12 | 227 | 3.2 | 12.9 | 0.00 | 0.00 | 0.00 | 80 | 1012.2 |
| 20260503054440 | 12 | 220 | 1.6 | 8.0 | 0.00 | 0.00 | 0.00 | 80 | 1012.1 |
| 20260503053653 | 12 | 220 | 1.6 | 8.0 | 0.00 | 0.00 | 0.00 | 80 | 1012.3 |
| 20260503053154 | 12 | 218 | 1.6 | 8.0 | 0.00 | 0.00 | 0.00 | 80 | 1012.2 |
| 20260503052707 | 12 | 218 | 1.6 | 6.4 | 0.00 | 0.00 | 0.00 | 80 | 1012.2 |
| 20260503052155 | 12 | 218 | 1.6 | 8.0 | 0.00 | 0.00 | 0.00 | 80 | 1012.3 |
| 20260503051939 | 12 | 220 | 3.2 | 9.7 | 0.00 | 0.00 | 0.00 | 80 | 1012.3 |
| 20260503051441 | 12 | 218 | 4.8 | 12.9 | 0.00 | 0.00 | 0.00 | 80 | 1012.2 |
| 20260503050651 | 12 | 215 | 4.8 | 12.9 | 0.00 | 0.00 | 0.00 | 80 | 1012.2 |
| 20260503050151 | 12 | 233 | 3.2 | 11.3 | 0.00 | 0.00 | 0.00 | 80 | 1012.1 |
| 20260503045653 | 12 | 233 | 3.2 | 11.3 | 0.00 | 0.00 | 0.00 | 80 | 1012.0 |
| 20260503045146 | 12 | 234 | 4.8 | 16.1 | 0.00 | 0.00 | 0.00 | 80 | 1012.0 |
| 20260503044647 | 12 | 234 | 6.4 | 16.1 | 0.00 | 0.00 | 0.00 | 80 | 1011.9 |
| 20260503044143 | 12 | 220 | 3.2 | 11.3 | 0.00 | 0.00 | 0.00 | 81 | 1011.8 |
| 20260503043644 | 12 | 216 | 1.6 | 11.3 | 0.00 | 0.00 | 0.00 | 80 | 1011.8 |
| 20260503043145 | 12 | 274 | 1.6 | 9.7 | 0.00 | 0.00 | 0.00 | 80 | 1011.7 |
| 20260503042643 | 12 | 274 | 1.6 | 9.7 | 0.00 | 0.00 | 0.00 | 80 | 1011.7 |
| 20260503042143 | 12 | 274 | 1.6 | 6.4 | 0.00 | 0.00 | 0.00 | 80 | 1011.8 |
| 20260503041641 | 12 | 274 | 1.6 | 6.4 | 0.00 | 0.00 | 0.00 | 80 | 1011.7 |
| 20260503041141 | 12 | 274 | 3.2 | 14.5 | 0.00 | 0.00 | 0.00 | 80 | 1011.6 |
| 20260503040644 | 12 | 274 | 6.4 | 14.5 | 0.00 | 0.00 | 0.00 | 80 | 1011.5 |
| 20260503040155 | 12 | 226 | 4.8 | 16.1 | 0.00 | 0.00 | 0.00 | 80 | 1011.5 |
| 20260503035639 | 12 | 245 | 6.4 | 19.3 | 0.00 | 0.00 | 0.00 | 80 | 1011.5 |
| 20260503035137 | 12 | 204 | 8.0 | 19.3 | 0.00 | 0.00 | 0.00 | 80 | 1011.4 |
| 20260503034638 | 12 | 222 | 8.0 | 17.7 | 0.00 | 0.00 | 0.00 | 80 | 1011.4 |
| 20260503034254 | 12 | 228 | 6.4 | 14.5 | 0.00 | 0.00 | 0.00 | 80 | 1011.4 |
| 20260503034219 | 12 | 241 | 6.4 | 17.7 | 0.00 | 0.00 | 0.00 | 80 | 1011.3 |
| 20260503033437 | 12 | 256 | 6.4 | 16.1 | 0.00 | 0.00 | 0.00 | 79 | 1011.2 |
| 20260503032634 | 12 | 217 | 6.4 | 16.1 | 0.00 | 0.00 | 0.00 | 79 | 1011.2 |
| 20260503032133 | 12 | 247 | 4.8 | 14.5 | 0.00 | 0.00 | 0.00 | 79 | 1011.1 |
| 20260503031633 | 12 | 216 | 4.8 | 16.1 | 0.00 | 0.00 | 0.00 | 79 | 1011.0 |
| 20260503031134 | 12 | 249 | 8.0 | 19.3 | 0.00 | 0.00 | 0.00 | 78 | 1011.0 |
| 20260503030635 | 12 | 272 | 8.0 | 19.3 | 0.00 | 0.00 | 0.00 | 78 | 1010.9 |
| 20260503030422 | 12 | 210 | 8.0 | 17.7 | 0.00 | 0.00 | 0.00 | 78 | 1010.8 |
| 20260503025634 | 12 | 204 | 8.0 | 17.7 | 0.00 | 0.00 | 0.00 | 77 | 1010.9 |
| 20260503025135 | 13 | 210 | 6.4 | 17.7 | 0.00 | 0.00 | 0.00 | 77 | 1010.8 |
| 20260503024922 | 13 | 217 | 8.0 | 17.7 | 0.00 | 0.00 | 0.00 | 77 | 1010.8 |
| 20260503024134 | 13 | 215 | 8.0 | 19.3 | 0.00 | 0.00 | 0.00 | 76 | 1010.8 |
| 20260503023634 | 13 | 211 | 8.0 | 19.3 | 0.00 | 0.00 | 0.00 | 76 | 1010.8 |
| 20260503023134 | 13 | 212 | 6.4 | 14.5 | 0.00 | 0.00 | 0.00 | 76 | 1010.7 |
| 20260503022634 | 13 | 277 | 6.4 | 12.9 | 0.00 | 0.00 | 0.00 | 75 | 1010.7 |
| 20260503022134 | 13 | 221 | 6.4 | 16.1 | 0.00 | 0.00 | 0.00 | 75 | 1010.7 |
| 20260503021633 | 13 | 201 | 9.7 | 17.7 | 0.00 | 0.00 | 0.00 | 75 | 1010.7 |
| 20260503021423 | 13 | 207 | 9.7 | 17.7 | 0.00 | 0.00 | 0.00 | 75 | 1010.7 |
| 20260503020633 | 13 | 199 | 9.7 | 20.9 | 0.00 | 0.00 | 0.00 | 74 | 1010.8 |
| 20260503020134 | 13 | 245 | 11.3 | 20.9 | 0.00 | 0.00 | 0.00 | 74 | 1010.7 |
| 20260503015633 | 14 | 241 | 11.3 | 19.3 | 0.00 | 0.00 | 0.00 | 73 | 1010.8 |
| 20260503015128 | 14 | 211 | 9.7 | 20.9 | 0.00 | 0.00 | 0.00 | 73 | 1010.7 |
| 20260503014622 | 14 | 217 | 9.7 | 20.9 | 0.00 | 0.00 | 0.00 | 72 | 1010.8 |
| 20260503014404 | 14 | 186 | 11.3 | 19.3 | 0.00 | 0.00 | 0.00 | 72 | 1010.8 |
| 20260503013609 | 15 | 224 | 9.7 | 24.1 | 0.00 | 0.00 | 0.00 | 72 | 1010.7 |
| 20260503013104 | 15 | 246 | 9.7 | 24.1 | 0.00 | 0.00 | 0.00 | 71 | 1010.7 |
| 20260503012557 | 15 | 249 | 11.3 | 25.7 | 0.00 | 0.00 | 0.00 | 71 | 1010.8 |
| 20260503012051 | 15 | 245 | 9.7 | 25.7 | 0.00 | 0.00 | 0.00 | 70 | 1010.8 |
| 20260503011833 | 15 | 220 | 9.7 | 22.5 | 0.00 | 0.00 | 0.00 | 71 | 1010.7 |
| 20260503011039 | 15 | 213 | 8.0 | 19.3 | 0.00 | 0.00 | 0.00 | 70 | 1010.7 |
| 20260503010534 | 15 | 208 | 8.0 | 20.9 | 0.00 | 0.00 | 0.00 | 70 | 1010.7 |
| 20260503010028 | 15 | 214 | 9.7 | 22.5 | 0.00 | 0.00 | 0.00 | 69 | 1010.7 |
| 20260503005522 | 15 | 256 | 9.7 | 22.5 | 0.00 | 0.00 | 0.00 | 69 | 1010.7 |
| 20260503005015 | 15 | 199 | 11.3 | 29.0 | 0.00 | 0.00 | 0.00 | 70 | 1010.8 |
| 20260503004510 | 15 | 254 | 12.9 | 30.6 | 0.00 | 0.00 | 0.00 | 69 | 1010.7 |
| 20260503004039 | 16 | 193 | 12.9 | 30.6 | 0.00 | 0.00 | 0.00 | 68 | 1010.8 |
| 20260503004024 | 15 | 233 | 14.5 | 30.6 | 0.00 | 0.00 | 0.00 | 69 | 1010.8 |
| 20260503002951 | 16 | 245 | 12.9 | 25.7 | 0.00 | 0.00 | 0.00 | 68 | 1010.7 |
| 20260503002445 | 16 | 251 | 14.5 | 30.6 | 0.00 | 0.00 | 0.00 | 68 | 1010.7 |
| 20260503001939 | 16 | 247 | 12.9 | 30.6 | 0.00 | 0.00 | 0.00 | 67 | 1010.7 |
| 20260503001722 | 16 | 199 | 11.3 | 32.2 | 0.00 | 0.00 | 0.00 | 68 | 1010.6 |
| 20260503000927 | 16 | 253 | 9.7 | 32.2 | 0.00 | 0.00 | 0.00 | 67 | 1010.7 |
| 20260503000710 | 16 | 214 | 9.7 | 24.1 | 0.00 | 0.00 | 0.00 | 69 | 1010.6 |
| 20260502235915 | 16 | 218 | 12.9 | 24.1 | 0.00 | 0.00 | 0.00 | 69 | 1010.7 |
| 20260502235409 | 16 | 219 | 12.9 | 32.2 | 0.00 | 0.00 | 0.00 | 69 | 1010.8 |
| 20260502234904 | 16 | 273 | 12.9 | 32.2 | 0.00 | 0.00 | 0.00 | 68 | 1010.8 |
| 20260502234357 | 16 | 212 | 12.9 | 29.0 | 0.00 | 0.00 | 0.00 | 67 | 1010.8 |
| 20260502233851 | 17 | 241 | 12.9 | 25.7 | 0.00 | 0.00 | 0.00 | 67 | 1010.9 |
| 20260502233358 | 17 | 235 | 11.3 | 25.7 | 0.00 | 0.00 | 0.00 | 65 | 1010.9 |
| 20260502232839 | 17 | 264 | 12.9 | 25.7 | 0.00 | 0.00 | 0.00 | 65 | 1010.9 |
| 20260502232333 | 17 | 218 | 11.3 | 25.7 | 0.00 | 0.00 | 0.00 | 65 | 1011.0 |
| 20260502231828 | 17 | 214 | 11.3 | 25.7 | 0.00 | 0.00 | 0.00 | 65 | 1011.1 |
| 20260502231322 | 17 | 222 | 11.3 | 25.7 | 0.00 | 0.00 | 0.00 | 66 | 1011.1 |
| 20260502230816 | 17 | 195 | 11.3 | 20.9 | 0.00 | 0.00 | 0.00 | 67 | 1011.2 |
| 20260502230310 | 17 | 212 | 9.7 | 20.9 | 0.00 | 0.00 | 0.00 | 65 | 1011.3 |
| 20260502225804 | 17 | 228 | 11.3 | 24.1 | 0.00 | 0.00 | 0.00 | 64 | 1011.5 |
| 20260502225043 | 17 | 228 | 11.3 | 25.7 | 0.00 | 0.00 | 0.00 | 65 | 1011.4 |
| 20260502224256 | 17 | 201 | 12.9 | 29.0 | 0.00 | 0.00 | 0.00 | 66 | 1011.6 |
| 20260502223755 | 17 | 249 | 12.9 | 29.0 | 0.00 | 0.00 | 0.00 | 67 | 1011.7 |
| 20260502223254 | 17 | 214 | 11.3 | 24.1 | 0.00 | 0.00 | 0.00 | 66 | 1011.8 |
| 20260502222754 | 17 | 284 | 11.3 | 24.1 | 0.00 | 0.00 | 0.00 | 67 | 1011.9 |
| 20260502222254 | 17 | 245 | 12.9 | 24.1 | 0.00 | 0.00 | 0.00 | 67 | 1011.9 |
| 20260502221754 | 16 | 272 | 12.9 | 27.4 | 0.00 | 0.00 | 0.00 | 68 | 1011.9 |
| 20260502221542 | 16 | 210 | 16.1 | 29.0 | 0.00 | 0.00 | 0.00 | 68 | 1012.2 |
| 20260502221041 | 16 | 208 | 16.1 | 29.0 | 0.00 | 0.00 | 0.00 | 68 | 1012.3 |
| 20260502220255 | 16 | 241 | 14.5 | 29.0 | 0.00 | 0.00 | 0.00 | 68 | 1012.3 |
| 20260502215807 | 16 | 248 | 14.5 | 29.0 | 0.00 | 0.00 | 0.00 | 68 | 1012.4 |
| 20260502215255 | 16 | 255 | 14.5 | 29.0 | 0.00 | 0.00 | 0.00 | 69 | 1012.5 |
| 20260502215041 | 16 | 278 | 12.9 | 29.0 | 0.00 | 0.00 | 0.00 | 69 | 1012.5 |
| 20260502214255 | 17 | 247 | 11.3 | 27.4 | 0.00 | 0.00 | 0.00 | 68 | 1012.5 |
| 20260502213754 | 17 | 226 | 12.9 | 25.7 | 0.00 | 0.00 | 0.00 | 70 | 1012.6 |
| 20260502213255 | 16 | 273 | 12.9 | 25.7 | 0.00 | 0.00 | 0.00 | 69 | 1012.6 |
| 20260502212829 | 16 | 264 | 14.5 | 25.7 | 0.00 | 0.00 | 0.00 | 70 | 1012.7 |
| 20260502212816 | 16 | 271 | 14.5 | 25.7 | 0.00 | 0.00 | 0.00 | 70 | 1012.6 |
| 20260502211743 | 16 | 238 | 12.9 | 25.7 | 0.00 | 0.00 | 0.00 | 69 | 1012.7 |
| 20260502211237 | 17 | 246 | 12.9 | 29.0 | 0.00 | 0.00 | 0.00 | 69 | 1012.8 |
| 20260502210731 | 17 | 269 | 12.9 | 29.0 | 0.00 | 0.00 | 0.00 | 70 | 1012.9 |
| 20260502210225 | 16 | 211 | 11.3 | 27.4 | 0.00 | 0.00 | 0.00 | 70 | 1013.0 |
| 20260502205719 | 16 | 278 | 11.3 | 30.6 | 0.00 | 0.00 | 0.00 | 71 | 1013.0 |
| 20260502205250 | 16 | 259 | 12.9 | 24.1 | 0.00 | 0.00 | 0.00 | 71 | 1013.1 |
| 20260502205235 | 16 | 247 | 12.9 | 30.6 | 0.00 | 0.00 | 0.00 | 71 | 1013.1 |
| 20260502204201 | 16 | 281 | 12.9 | 27.4 | 0.00 | 0.00 | 0.00 | 72 | 1013.1 |
| 20260502203943 | 16 | 259 | 14.5 | 27.4 | 0.00 | 0.00 | 0.00 | 72 | 1013.3 |
| 20260502203149 | 16 | 266 | 12.9 | 27.4 | 0.00 | 0.00 | 0.00 | 73 | 1013.4 |
| 20260502202650 | 16 | 239 | 11.3 | 27.4 | 0.00 | 0.00 | 0.00 | 71 | 1013.4 |
| 20260502202150 | 16 | 285 | 12.9 | 24.1 | 0.00 | 0.00 | 0.00 | 72 | 1013.4 |
| 20260502201649 | 16 | 243 | 12.9 | 25.7 | 0.00 | 0.00 | 0.00 | 73 | 1013.5 |
| 20260502201148 | 16 | 272 | 11.3 | 25.7 | 0.00 | 0.00 | 0.00 | 73 | 1013.5 |
| 20260502200732 | 16 | 245 | 9.7 | 22.5 | 0.00 | 0.00 | 0.00 | 72 | 1013.6 |
| 20260502200714 | 16 | 245 | 11.3 | 24.1 | 0.00 | 0.00 | 0.00 | 73 | 1013.5 |
| 20260502195650 | 16 | 297 | 9.7 | 24.1 | 0.00 | 0.00 | 0.00 | 73 | 1013.6 |
| 20260502195148 | 16 | 199 | 11.3 | 24.1 | 0.00 | 0.00 | 0.00 | 73 | 1013.6 |
| 20260502194936 | 16 | 167 | 11.3 | 22.5 | 0.00 | 0.00 | 0.00 | 73 | 1013.5 |
| 20260502194149 | 16 | 179 | 9.7 | 17.7 | 0.00 | 0.00 | 0.00 | 74 | 1013.6 |
| 20260502193647 | 16 | 225 | 9.7 | 20.9 | 0.00 | 0.00 | 0.00 | 74 | 1013.7 |
| 20260502193433 | 16 | 219 | 12.9 | 24.1 | 0.00 | 0.00 | 0.00 | 75 | 1013.7 |
| 20260502192646 | 16 | 248 | 9.7 | 24.1 | 0.00 | 0.00 | 0.00 | 75 | 1013.6 |
| 20260502192146 | 15 | 191 | 8.0 | 24.1 | 0.00 | 0.00 | 0.00 | 76 | 1013.7 |
| 20260502191645 | 15 | 226 | 11.3 | 24.1 | 0.00 | 0.00 | 0.00 | 76 | 1013.7 |
| 20260502191146 | 15 | 194 | 11.3 | 20.9 | 0.00 | 0.00 | 0.00 | 77 | 1013.7 |
| 20260502190646 | 15 | 199 | 11.3 | 20.9 | 0.00 | 0.00 | 0.00 | 76 | 1013.7 |
| 20260502190147 | 15 | 199 | 9.7 | 19.3 | 0.00 | 0.00 | 0.00 | 77 | 1013.7 |
| 20260502185647 | 15 | 195 | 11.3 | 22.5 | 0.00 | 0.00 | 0.00 | 77 | 1013.7 |
| 20260502185140 | 15 | 194 | 11.3 | 22.5 | 0.00 | 0.00 | 0.00 | 78 | 1013.8 |
| 20260502184634 | 15 | 210 | 12.9 | 22.5 | 0.00 | 0.00 | 0.00 | 78 | 1013.8 |
| 20260502184128 | 15 | 191 | 11.3 | 22.5 | 0.00 | 0.00 | 0.00 | 79 | 1013.8 |
| 20260502183623 | 15 | 238 | 11.3 | 20.9 | 0.00 | 0.00 | 0.00 | 79 | 1013.8 |
| 20260502183116 | 15 | 194 | 11.3 | 22.5 | 0.00 | 0.00 | 0.00 | 80 | 1013.8 |
| 20260502182611 | 14 | 191 | 11.3 | 20.9 | 0.00 | 0.00 | 0.00 | 80 | 1013.8 |
| 20260502182105 | 14 | 195 | 11.3 | 19.3 | 0.00 | 0.00 | 0.00 | 81 | 1013.7 |
| 20260502181558 | 14 | 197 | 8.0 | 19.3 | 0.00 | 0.00 | 0.00 | 80 | 1013.8 |
| 20260502181053 | 14 | 203 | 8.0 | 22.5 | 0.00 | 0.00 | 0.00 | 81 | 1013.8 |
| 20260502180546 | 14 | 190 | 9.7 | 22.5 | 0.00 | 0.00 | 0.00 | 82 | 1013.8 |